View from above orbital plane
|
View from above satellite
|
Ground track
|
The orbit data is extracted from the following two-line orbital elements,
1 31699U 07026B 21059.43849380 .00000105 00000-0 24095-4 0 9999
2 31699 97.4380 236.4231 0348006 236.2427 151.2809 14.41423488720452
Epoch (UTC): | 28 February 2021 10:31:25 |
Eccentricity: | 0.0348006 |
inclination: | 97.4380° |
perigee height: | 505 km |
apogee height: | 1002 km |
right ascension of ascending node: | 236.4231° |
argument of perigee: | 236.2427° |
revolutions per day: | 14.41423488 |
mean anomaly at epoch: | 151.2809° |
orbit number at epoch: | 72045 |
The dashed part of the orbit path shows where the satellite is in the earth's shadow,
|
|